Torna al catalogo

FREGAT DEB

AttivoUNKNOWN
NORAD 46413·DEBRIS·🇷🇺 Russia

Lanciato Jul 18, 2011 da Baikonur Cosmodrome

Loading…

Prossimi Passaggi (prossime 24 ore)

TLE

AggiornatoSource: Space-Track

Epoca: Sep 14, 2026, 05:20 UTC

1 46413U 11037LU  26257.22260731  .00008814  00000-0  40626-1 0  9995
2 46413  51.0553 334.6619 1141781 314.7730  36.5506 11.50468206 96653

Traccia FREGAT DEB in tempo reale con AllMySat

Download on the App Store